contact:dominique.lefevre@mio.osupytheas.fr, maurice.libes@osupytheas.fr, didier.mallarino@osupytheas.fr
Project:EMSO http://www.emso-fr.org/EMSO-France
Depth: 2436.0 m
Title:EMSO Ligure Ouest : Data MII capteur AQUADOPP
Date,Latitude,Longitude,X_East,Y_North,Z_Up,Amplitude_X,Amplitude_Y,Amplitude_Z,Batterie,SoundSpeed,Heading,Pitch,Roll,Pressure,TIS,Speed,Direction
, degrees North, degrees East, m.s-1, m.s-1,m.s-1, 1, 1, 1, Volt, m.s-1, degree, degree, degree, dbar, degree_C, m.s-1, degree
2019-09-16T00:09:04,42.805,6.029,-0.001,-0.031,-0.04,100.0,103.0,97.0,13.4,1505.2,327.6,-0.8,1.8,2470.213,13.29,0.031,181.8
2019-09-16T00:12:05,42.805,6.029,0.032,-0.03,-0.011,100.0,103.0,97.0,13.4,1505.2,327.1,-0.8,1.8,2470.141,13.3,0.043,133.1
2019-09-16T00:15:06,42.805,6.029,0.026,-0.039,-0.033,101.0,104.0,97.0,13.4,1505.3,327.9,-0.7,1.8,2470.144,13.31,0.046,146.3
2019-09-16T00:18:07,42.805,6.029,0.039,-0.02,0.007,99.0,102.0,98.0,13.4,1505.3,328.1,-0.7,1.8,2470.097,13.31,0.043,117.1
2019-09-16T00:21:08,42.805,6.029,0.017,-0.013,-0.031,99.0,102.0,98.0,13.4,1505.3,324.8,-0.7,1.8,2470.14,13.32,0.021,127.4
2019-09-16T00:24:09,42.805,6.029,0.017,-0.035,0.015,100.0,103.0,97.0,13.4,1505.3,327.1,-0.7,1.9,2470.089,13.32,0.038,154.1
2019-09-16T00:27:10,42.805,6.029,0.048,-0.015,0.006,100.0,103.0,98.0,13.3,1505.3,323.1,-0.7,1.9,2470.086,13.32,0.05,107.4
2019-09-16T00:30:11,42.805,6.029,-0.001,-0.069,-0.02,100.0,103.0,96.0,13.4,1505.3,328.6,-0.7,1.8,2470.124,13.32,0.069,180.8
2019-09-16T00:33:12,42.805,6.029,0.026,-0.031,0.009,101.0,104.0,97.0,13.3,1505.3,325.2,-0.7,1.9,2470.06,13.32,0.04,140.0
2019-09-16T00:36:13,42.805,6.029,0.02,-0.04,-0.037,100.0,102.0,98.0,13.4,1505.3,326.5,-0.7,1.9,2470.108,13.32,0.044,153.4
2019-09-16T00:39:14,42.805,6.029,0.02,0.002,-0.004,99.0,104.0,97.0,13.3,1505.3,324.9,-0.7,1.9,2470.074,13.32,0.02,84.3
2019-09-16T00:42:15,42.805,6.029,0.016,-0.035,-0.023,99.0,102.0,98.0,13.4,1505.3,326.8,-0.7,1.9,2470.056,13.32,0.038,155.4
2019-09-16T00:45:16,42.805,6.029,0.015,-0.017,-0.025,100.0,102.0,96.0,13.4,1505.3,325.0,-0.7,1.9,2470.054,13.32,0.022,138.6
2019-09-16T00:48:17,42.805,6.029,-0.004,-0.038,-0.04,101.0,103.0,97.0,13.4,1505.3,325.1,-0.7,1.8,2470.071,13.32,0.038,186.0
2019-09-16T00:51:18,42.805,6.029,0.019,0.001,0.009,100.0,102.0,98.0,13.3,1505.3,328.4,-0.7,1.8,2470.042,13.32,0.019,87.0
2019-09-16T00:54:19,42.805,6.029,-0.022,-0.013,-0.001,99.0,102.0,97.0,13.3,1505.3,323.3,-0.7,1.8,2470.006,13.32,0.025,239.4
2019-09-16T00:57:20,42.805,6.029,0.01,-0.017,0.0,99.0,103.0,98.0,13.4,1505.3,326.7,-0.7,1.8,2470.031,13.32,0.019,149.5
2019-09-16T01:00:21,42.805,6.029,-0.025,-0.01,-0.019,100.0,103.0,98.0,13.3,1505.3,327.8,-0.7,1.8,2470.042,13.32,0.026,248.2
2019-09-16T01:03:22,42.805,6.029,0.02,-0.019,-0.001,100.0,103.0,97.0,13.4,1505.3,328.1,-0.7,1.8,2470.028,13.32,0.027,133.5
2019-09-16T01:06:23,42.805,6.029,0.028,0.002,0.032,100.0,103.0,97.0,13.4,1505.3,327.2,-0.7,1.8,2470.034,13.32,0.028,85.9
2019-09-16T01:09:24,42.805,6.029,0.036,-0.043,0.011,100.0,103.0,97.0,13.4,1505.3,328.3,-0.7,1.8,2470.017,13.32,0.056,140.1
2019-09-16T01:12:25,42.805,6.029,0.006,-0.024,0.017,100.0,103.0,98.0,13.4,1505.3,324.3,-0.7,1.8,2470.004,13.32,0.024,166.0
2019-09-16T01:15:26,42.805,6.029,0.016,-0.003,-0.003,99.0,102.0,98.0,13.3,1505.3,325.4,-0.7,1.8,2470.012,13.32,0.016,100.6
2019-09-16T01:18:27,42.805,6.029,0.01,-0.036,-0.024,101.0,102.0,97.0,13.3,1505.3,324.9,-0.7,1.8,2470.016,13.32,0.037,164.5
2019-09-16T01:21:28,42.805,6.029,0.02,-0.009,0.005,101.0,103.0,97.0,13.4,1505.3,324.1,-0.7,1.9,2470.015,13.32,0.021,114.2
2019-09-16T01:24:29,42.805,6.029,0.029,-0.031,-0.008,101.0,103.0,98.0,13.3,1505.3,328.2,-0.7,1.8,2470.018,13.32,0.042,136.9
2019-09-16T01:27:30,42.805,6.029,0.015,-0.016,-0.008,101.0,103.0,97.0,13.4,1505.3,325.5,-0.7,1.8,2470.05,13.32,0.021,136.9
2019-09-16T01:30:31,42.805,6.029,-0.016,-0.001,-0.008,101.0,101.0,97.0,13.4,1505.3,326.3,-0.7,1.8,2470.024,13.32,0.016,266.4
2019-09-16T01:33:32,42.805,6.029,0.005,-0.019,-0.048,100.0,102.0,99.0,13.4,1505.3,323.7,-0.7,1.8,2470.031,13.32,0.019,165.3
2019-09-16T01:36:33,42.805,6.029,0.046,-0.03,0.027,101.0,103.0,98.0,13.4,1505.3,325.1,-0.7,1.8,2470.069,13.32,0.054,123.1
2019-09-16T01:39:34,42.805,6.029,0.017,-0.033,-0.001,101.0,102.0,98.0,13.4,1505.3,324.2,-0.7,1.8,2469.978,13.32,0.037,152.7
2019-09-16T01:42:35,42.805,6.029,0.007,-0.022,0.006,101.0,102.0,99.0,13.4,1505.3,326.8,-0.7,1.9,2470.008,13.32,0.023,162.4
2019-09-16T01:45:36,42.805,6.029,0.0,-0.019,-0.007,101.0,103.0,98.0,13.4,1505.3,325.3,-0.7,1.8,2470.004,13.32,0.019,180.0
2019-09-16T01:48:37,42.805,6.029,-0.012,-0.023,-0.021,100.0,102.0,98.0,13.4,1505.3,328.1,-0.7,1.8,2470.032,13.32,0.025,207.6
2019-09-16T01:51:38,42.805,6.029,0.016,-0.029,-0.007,101.0,103.0,97.0,13.4,1505.3,326.2,-0.7,1.8,2470.027,13.32,0.033,151.1
2019-09-16T01:54:39,42.805,6.029,0.003,-0.021,-0.031,101.0,102.0,99.0,13.3,1505.3,326.4,-0.7,1.8,2470.032,13.32,0.021,171.9
2019-09-16T01:57:40,42.805,6.029,0.017,-0.026,0.043,101.0,103.0,98.0,13.4,1505.3,327.1,-0.7,1.8,2470.034,13.33,0.031,146.8
2019-09-16T02:00:41,42.805,6.029,0.02,-0.013,0.015,101.0,102.0,97.0,13.3,1505.3,327.4,-0.7,1.8,2470.035,13.32,0.023,123.0
2019-09-16T02:03:42,42.805,6.029,0.001,-0.025,0.012,101.0,103.0,98.0,13.3,1505.3,326.9,-0.7,1.8,2469.994,13.32,0.025,177.7
2019-09-16T02:06:43,42.805,6.029,0.032,-0.021,0.02,101.0,103.0,98.0,13.4,1505.3,326.3,-0.7,1.8,2469.968,13.32,0.038,123.3
2019-09-16T02:09:44,42.805,6.029,-0.021,-0.013,0.005,100.0,104.0,96.0,13.4,1505.3,325.7,-0.8,1.8,2469.982,13.32,0.024,238.2
2019-09-16T02:12:45,42.805,6.029,0.003,-0.021,-0.017,101.0,103.0,97.0,13.4,1505.3,323.2,-0.7,1.8,2470.003,13.32,0.021,171.9
2019-09-16T02:15:46,42.805,6.029,0.012,-0.012,-0.009,100.0,103.0,98.0,13.4,1505.3,326.1,-0.7,1.8,2470.017,13.32,0.016,135.0
2019-09-16T02:18:47,42.805,6.029,0.028,-0.023,-0.008,100.0,104.0,97.0,13.4,1505.3,328.7,-0.7,1.8,2469.975,13.32,0.036,129.4
2019-09-16T02:21:48,42.805,6.029,0.011,-0.021,-0.004,101.0,100.0,99.0,13.3,1505.3,326.9,-0.7,1.8,2469.968,13.33,0.023,152.4
2019-09-16T02:24:49,42.805,6.029,0.026,-0.034,-0.012,100.0,103.0,98.0,13.3,1505.3,326.7,-0.7,1.8,2469.994,13.32,0.042,142.6
2019-09-16T02:27:50,42.805,6.029,0.038,-0.014,0.013,101.0,103.0,98.0,13.3,1505.3,324.2,-0.7,1.8,2470.038,13.32,0.04,110.2
2019-09-16T02:30:51,42.805,6.029,0.007,-0.01,-0.022,101.0,102.0,98.0,13.4,1505.3,325.9,-0.8,1.8,2470.02,13.32,0.012,145.0
2019-09-16T02:33:52,42.805,6.029,0.026,-0.017,-0.009,100.0,102.0,98.0,13.3,1505.3,325.9,-0.7,1.9,2469.984,13.32,0.031,123.2
2019-09-16T02:36:53,42.805,6.029,0.024,-0.023,0.0,101.0,101.0,99.0,13.4,1505.3,325.1,-0.7,1.8,2469.979,13.32,0.033,133.8
2019-09-16T02:39:54,42.805,6.029,0.022,-0.009,0.025,101.0,103.0,98.0,13.4,1505.3,326.1,-0.7,1.8,2470.02,13.32,0.023,112.2
2019-09-16T02:42:55,42.805,6.029,0.031,-0.028,0.015,100.0,103.0,99.0,13.4,1505.3,325.5,-0.7,1.8,2470.021,13.32,0.041,132.1
2019-09-16T02:45:56,42.805,6.029,0.046,0.005,0.006,103.0,103.0,97.0,13.4,1505.3,325.6,-0.7,1.8,2470.006,13.32,0.046,83.8
2019-09-16T02:48:57,42.805,6.029,0.028,0.008,0.024,100.0,103.0,98.0,13.4,1505.3,326.9,-0.7,1.8,2470.01,13.32,0.029,74.1
2019-09-16T02:51:58,42.805,6.029,0.014,-0.02,-0.009,100.0,104.0,98.0,13.4,1505.3,327.7,-0.7,1.8,2469.997,13.32,0.024,145.0
2019-09-16T02:54:59,42.805,6.029,0.036,-0.041,-0.004,100.0,102.0,98.0,13.3,1505.3,325.0,-0.7,1.8,2469.976,13.32,0.054,138.7
2019-09-16T02:58:00,42.805,6.029,0.012,-0.002,0.0,101.0,104.0,98.0,13.3,1505.3,325.2,-0.7,1.8,2469.97,13.32,0.012,99.5
2019-09-16T03:01:01,42.805,6.029,0.013,-0.018,0.012,102.0,104.0,98.0,13.4,1505.3,326.4,-0.7,1.8,2470.01,13.32,0.022,144.2
2019-09-16T03:04:02,42.805,6.029,-0.006,-0.009,-0.033,101.0,104.0,98.0,13.3,1505.3,327.1,-0.7,1.8,2469.994,13.32,0.01,213.7
2019-09-16T03:07:03,42.805,6.029,0.02,-0.015,-0.022,101.0,104.0,98.0,13.4,1505.3,325.9,-0.7,1.8,2470.029,13.32,0.025,126.9
2019-09-16T03:10:04,42.805,6.029,0.041,-0.011,0.007,100.0,104.0,98.0,13.3,1505.3,324.4,-0.7,1.9,2470.017,13.32,0.042,105.0
2019-09-16T03:13:05,42.805,6.029,0.038,-0.012,-0.001,100.0,103.0,98.0,13.3,1505.3,326.6,-0.7,1.8,2470.006,13.32,0.039,107.5
2019-09-16T03:16:06,42.805,6.029,0.023,-0.008,-0.018,101.0,103.0,98.0,13.3,1505.3,323.2,-0.7,1.8,2470.017,13.32,0.024,109.2
2019-09-16T03:19:07,42.805,6.029,0.032,-0.033,-0.012,101.0,104.0,98.0,13.4,1505.3,325.3,-0.7,1.8,2470.005,13.32,0.045,135.9
2019-09-16T03:22:08,42.805,6.029,0.002,-0.015,-0.001,101.0,103.0,98.0,13.4,1505.3,327.1,-0.7,1.8,2470.03,13.32,0.015,172.4
2019-09-16T03:25:09,42.805,6.029,0.036,-0.024,0.0,102.0,102.0,99.0,13.3,1505.3,324.9,-0.7,1.8,2469.991,13.32,0.043,123.7
2019-09-16T03:28:10,42.805,6.029,0.044,-0.021,-0.002,102.0,103.0,99.0,13.3,1505.3,324.9,-0.7,1.8,2470.002,13.32,0.048,115.5
2019-09-16T03:31:11,42.805,6.029,0.034,-0.019,-0.006,101.0,103.0,98.0,13.4,1505.3,327.2,-0.7,1.8,2470.001,13.32,0.038,119.2
2019-09-16T03:34:12,42.805,6.029,-0.003,-0.007,-0.004,102.0,105.0,99.0,13.4,1505.3,324.3,-0.7,1.8,2469.955,13.32,0.007,203.2
2019-09-16T03:37:13,42.805,6.029,0.029,-0.021,-0.015,101.0,105.0,98.0,13.4,1505.3,325.0,-0.7,1.8,2469.995,13.32,0.035,125.9
2019-09-16T03:40:14,42.805,6.029,0.018,-0.017,0.002,101.0,104.0,99.0,13.4,1505.3,325.8,-0.7,1.8,2469.967,13.32,0.024,133.4
2019-09-16T03:43:15,42.805,6.029,0.018,-0.019,-0.004,102.0,104.0,99.0,13.4,1505.3,327.0,-0.7,1.8,2469.999,13.32,0.026,136.5
2019-09-16T03:46:16,42.805,6.029,0.012,-0.013,0.005,101.0,105.0,98.0,13.4,1505.3,323.6,-0.7,1.8,2470.052,13.32,0.017,137.3
2019-09-16T03:49:17,42.805,6.029,-0.029,-0.04,-0.001,100.0,104.0,98.0,13.3,1505.3,326.9,-0.7,1.8,2470.023,13.32,0.049,215.9
2019-09-16T03:52:18,42.805,6.029,0.016,-0.027,0.009,102.0,104.0,98.0,13.3,1505.3,326.3,-0.7,1.8,2470.009,13.32,0.031,149.3
2019-09-16T03:55:19,42.805,6.029,0.038,-0.022,0.007,100.0,104.0,99.0,13.4,1505.3,327.8,-0.7,1.8,2469.987,13.32,0.043,120.1
2019-09-16T03:58:20,42.805,6.029,0.011,-0.017,0.013,102.0,105.0,99.0,13.4,1505.3,326.0,-0.7,1.8,2470.001,13.32,0.02,147.1
2019-09-16T04:01:21,42.805,6.029,0.006,-0.013,0.002,101.0,103.0,99.0,13.4,1505.3,327.4,-0.7,1.8,2470.001,13.32,0.014,155.2
2019-09-16T04:04:22,42.805,6.029,0.02,-0.003,-0.016,102.0,104.0,98.0,13.3,1505.3,327.3,-0.7,1.8,2469.984,13.32,0.02,98.5
2019-09-16T04:07:23,42.805,6.029,0.046,0.001,0.008,103.0,105.0,98.0,13.4,1505.3,323.5,-0.7,1.8,2469.997,13.32,0.046,88.8
2019-09-16T04:10:24,42.805,6.029,0.014,-0.022,-0.042,102.0,103.0,99.0,13.4,1505.3,327.7,-0.7,1.8,2469.947,13.32,0.026,147.5
2019-09-16T04:13:25,42.805,6.029,0.023,-0.019,0.015,103.0,104.0,99.0,13.4,1505.3,327.7,-0.7,1.8,2470.014,13.32,0.029,129.6
2019-09-16T04:16:26,42.805,6.029,0.015,0.001,-0.006,102.0,103.0,98.0,13.4,1505.3,326.0,-0.7,1.8,2470.059,13.32,0.015,86.2
2019-09-16T04:19:27,42.805,6.029,0.003,-0.015,0.014,102.0,104.0,99.0,13.4,1505.3,326.6,-0.7,1.9,2469.986,13.32,0.015,168.7
2019-09-16T04:22:28,42.805,6.029,0.035,-0.015,0.04,101.0,105.0,98.0,13.4,1505.3,324.6,-0.7,1.8,2470.005,13.32,0.038,113.2
2019-09-16T04:25:29,42.805,6.029,0.055,-0.04,0.009,101.0,104.0,98.0,13.4,1505.3,325.3,-0.7,1.8,2470.049,13.32,0.068,126.0
2019-09-16T04:28:30,42.805,6.029,0.057,-0.018,0.014,103.0,103.0,98.0,13.4,1505.3,325.0,-0.7,1.8,2470.008,13.32,0.059,107.5
2019-09-16T04:31:31,42.805,6.029,-0.008,-0.013,-0.023,103.0,103.0,98.0,13.4,1505.3,325.1,-0.7,1.8,2469.968,13.32,0.015,211.6
2019-09-16T04:34:32,42.805,6.029,0.005,-0.018,-0.017,101.0,103.0,99.0,13.3,1505.3,326.6,-0.7,1.9,2470.035,13.32,0.018,164.5
2019-09-16T04:37:33,42.805,6.029,0.022,-0.04,-0.02,101.0,103.0,98.0,13.3,1505.3,323.9,-0.7,1.8,2470.03,13.32,0.045,151.2
2019-09-16T04:40:34,42.805,6.029,0.006,-0.021,-0.024,101.0,104.0,99.0,13.4,1505.3,326.2,-0.7,1.9,2470.03,13.32,0.021,164.1
2019-09-16T04:43:35,42.805,6.029,0.02,-0.043,-0.031,102.0,103.0,99.0,13.3,1505.3,325.4,-0.7,1.8,2469.987,13.32,0.047,155.1
2019-09-16T04:46:36,42.805,6.029,0.019,-0.031,-0.009,103.0,104.0,98.0,13.4,1505.3,323.3,-0.7,1.8,2469.977,13.32,0.036,148.5
2019-09-16T04:49:37,42.805,6.029,0.018,-0.024,0.01,101.0,104.0,100.0,13.4,1505.3,323.6,-0.7,1.8,2470.052,13.32,0.03,143.1
2019-09-16T04:52:38,42.805,6.029,0.037,-0.031,-0.017,101.0,103.0,98.0,13.4,1505.3,324.1,-0.7,1.8,2470.013,13.33,0.048,130.0
2019-09-16T04:55:39,42.805,6.029,0.004,-0.041,-0.01,102.0,104.0,99.0,13.4,1505.3,324.3,-0.7,1.8,2470.079,13.32,0.041,174.4
2019-09-16T04:58:40,42.805,6.029,0.024,-0.024,-0.01,101.0,103.0,98.0,13.3,1505.3,323.2,-0.7,1.9,2470.042,13.32,0.033,135.0
2019-09-16T05:01:41,42.805,6.029,0.014,-0.033,-0.021,101.0,104.0,99.0,13.4,1505.3,324.6,-0.7,1.8,2470.048,13.32,0.035,157.0
2019-09-16T05:04:42,42.805,6.029,0.008,-0.018,-0.004,103.0,103.0,99.0,13.4,1505.3,324.2,-0.7,1.8,2469.973,13.32,0.019,156.0
2019-09-16T05:07:43,42.805,6.029,0.021,-0.01,0.0,102.0,104.0,99.0,13.4,1505.3,327.6,-0.7,1.8,2470.028,13.32,0.023,115.5
2019-09-16T05:10:44,42.805,6.029,0.012,-0.012,-0.02,100.0,103.0,99.0,13.4,1505.3,327.1,-0.7,1.8,2470.024,13.32,0.016,135.0
2019-09-16T05:13:45,42.805,6.029,0.017,-0.025,-0.02,100.0,104.0,99.0,13.4,1505.3,327.7,-0.7,1.8,2470.061,13.32,0.03,145.8
2019-09-16T05:16:46,42.805,6.029,0.014,-0.025,-0.001,102.0,104.0,98.0,13.3,1505.3,327.2,-0.7,1.9,2470.02,13.32,0.028,150.7
2019-09-16T05:19:47,42.805,6.029,0.014,-0.023,0.0,102.0,103.0,99.0,13.4,1505.3,327.7,-0.7,1.8,2470.065,13.32,0.026,148.7
2019-09-16T05:22:48,42.805,6.029,0.0,-0.019,-0.011,101.0,104.0,98.0,13.4,1505.3,328.6,-0.7,1.8,2470.073,13.32,0.019,180.0
2019-09-16T05:25:49,42.805,6.029,0.01,-0.04,0.012,103.0,103.0,98.0,13.4,1505.3,327.2,-0.7,1.8,2470.035,13.32,0.041,166.0
2019-09-16T05:28:50,42.805,6.029,0.0,-0.019,-0.006,101.0,103.0,100.0,13.4,1505.3,327.4,-0.7,1.9,2470.073,13.32,0.019,180.0
2019-09-16T05:31:51,42.805,6.029,0.024,-0.007,-0.035,101.0,104.0,98.0,13.3,1505.3,324.4,-0.7,1.8,2470.073,13.32,0.025,106.3
2019-09-16T05:34:52,42.805,6.029,0.035,-0.021,0.012,102.0,104.0,99.0,13.4,1505.3,325.1,-0.7,1.9,2470.064,13.32,0.04,121.0
2019-09-16T05:37:53,42.805,6.029,0.017,-0.039,-0.003,101.0,105.0,99.0,13.4,1505.3,326.8,-0.7,1.9,2470.098,13.32,0.042,156.5
2019-09-16T05:40:54,42.805,6.029,0.025,0.0,-0.004,102.0,103.0,99.0,13.3,1505.3,323.2,-0.7,1.9,2470.112,13.32,0.025,90.0
2019-09-16T05:43:55,42.805,6.029,0.05,-0.02,0.025,102.0,104.0,98.0,13.4,1505.3,324.5,-0.7,1.8,2470.078,13.32,0.053,111.8
2019-09-16T05:46:56,42.805,6.029,0.02,-0.02,-0.007,102.0,104.0,99.0,13.3,1505.3,326.6,-0.7,1.8,2470.108,13.32,0.028,135.0
2019-09-16T05:49:57,42.805,6.029,0.042,-0.039,0.013,104.0,104.0,100.0,13.4,1505.3,324.9,-0.7,1.8,2470.11,13.32,0.057,132.9
2019-09-16T05:52:58,42.805,6.029,0.014,-0.026,-0.008,104.0,104.0,99.0,13.4,1505.3,326.4,-0.8,1.8,2470.097,13.33,0.029,151.7
2019-09-16T05:55:59,42.805,6.029,0.01,-0.013,0.016,102.0,103.0,99.0,13.4,1505.3,326.1,-0.7,1.8,2470.107,13.33,0.016,142.4
2019-09-16T05:59:00,42.805,6.029,-0.027,-0.036,-0.019,102.0,103.0,100.0,13.4,1505.3,323.1,-0.7,1.8,2470.098,13.33,0.045,216.9
2019-09-16T06:02:01,42.805,6.029,0.001,-0.032,-0.001,100.0,104.0,100.0,13.4,1505.3,325.5,-0.7,1.8,2470.086,13.33,0.032,178.2
2019-09-16T06:05:02,42.805,6.029,0.009,-0.031,-0.021,103.0,105.0,99.0,13.3,1505.3,324.2,-0.7,1.8,2470.085,13.33,0.032,163.8
2019-09-16T06:08:03,42.805,6.029,0.016,-0.026,-0.022,104.0,103.0,99.0,13.4,1505.3,323.5,-0.7,1.8,2470.08,13.33,0.03,148.4
2019-09-16T06:11:04,42.805,6.029,0.004,-0.029,-0.022,102.0,104.0,100.0,13.4,1505.3,328.5,-0.7,1.8,2470.089,13.33,0.029,172.2
2019-09-16T06:14:05,42.805,6.029,0.001,-0.039,-0.014,101.0,101.0,99.0,13.4,1505.3,326.9,-0.7,1.8,2470.032,13.33,0.039,178.5
2019-09-16T06:17:06,42.805,6.029,-0.003,-0.038,-0.011,102.0,104.0,99.0,13.4,1505.3,324.1,-0.7,1.8,2470.083,13.32,0.038,184.5
2019-09-16T06:20:07,42.805,6.029,0.016,-0.031,0.021,101.0,104.0,98.0,13.3,1505.3,326.2,-0.7,1.8,2470.111,13.32,0.034,152.7
2019-09-16T06:23:08,42.805,6.029,0.033,-0.018,0.003,101.0,104.0,101.0,13.4,1505.3,327.1,-0.7,1.8,2470.099,13.32,0.037,118.6
2019-09-16T06:26:09,42.805,6.029,-0.004,-0.013,0.0,102.0,105.0,99.0,13.3,1505.3,323.0,-0.7,1.8,2470.102,13.33,0.013,197.1
2019-09-16T06:29:10,42.805,6.029,-0.008,-0.029,-0.01,101.0,106.0,100.0,13.4,1505.3,328.4,-0.7,1.8,2470.133,13.33,0.03,195.4
2019-09-16T06:32:11,42.805,6.029,0.016,-0.033,-0.031,103.0,106.0,100.0,13.3,1505.3,325.0,-0.7,1.8,2470.1,13.33,0.036,154.1
2019-09-16T06:35:12,42.805,6.029,0.01,-0.03,-0.005,101.0,106.0,100.0,13.4,1505.3,326.8,-0.7,1.8,2470.135,13.33,0.031,161.6
2019-09-16T06:38:13,42.805,6.029,0.013,-0.025,-0.006,102.0,105.0,99.0,13.4,1505.3,327.2,-0.7,1.8,2470.111,13.33,0.028,152.5
2019-09-16T06:41:14,42.805,6.029,0.031,-0.044,0.025,101.0,104.0,100.0,13.4,1505.3,326.1,-0.7,1.9,2470.162,13.33,0.053,144.8
2019-09-16T06:44:15,42.805,6.029,-0.024,-0.031,-0.038,102.0,104.0,100.0,13.3,1505.3,325.7,-0.7,1.8,2470.104,13.33,0.039,217.7
2019-09-16T06:47:16,42.805,6.029,0.003,-0.015,-0.009,102.0,104.0,101.0,13.4,1505.3,326.3,-0.7,1.8,2470.157,13.33,0.015,168.7
2019-09-16T06:50:17,42.805,6.029,0.0,-0.018,0.02,102.0,105.0,99.0,13.4,1505.3,325.9,-0.7,1.9,2470.098,13.33,0.018,180.0
2019-09-16T06:53:18,42.805,6.029,0.0,-0.027,-0.007,103.0,103.0,99.0,13.4,1505.3,327.9,-0.7,1.8,2470.095,13.33,0.026,180.0
2019-09-16T06:56:19,42.805,6.029,0.031,-0.029,-0.015,102.0,104.0,100.0,13.3,1505.3,323.5,-0.7,1.8,2470.122,13.33,0.042,133.1
2019-09-16T06:59:20,42.805,6.029,-0.012,-0.056,-0.033,107.0,104.0,100.0,13.3,1505.3,325.2,-0.7,1.8,2470.135,13.33,0.057,192.1
2019-09-16T07:02:21,42.805,6.029,0.005,-0.01,-0.018,103.0,105.0,98.0,13.4,1505.3,328.3,-0.7,1.8,2470.181,13.33,0.011,153.4
2019-09-16T07:05:22,42.805,6.029,-0.034,-0.045,-0.042,102.0,104.0,100.0,13.4,1505.3,324.7,-0.7,1.9,2470.164,13.33,0.056,217.1
2019-09-16T07:08:23,42.805,6.029,-0.012,-0.014,0.018,104.0,106.0,99.0,13.3,1505.3,326.4,-0.7,1.8,2470.131,13.33,0.018,220.6
2019-09-16T07:11:24,42.805,6.029,-0.001,-0.016,0.004,102.0,105.0,101.0,13.4,1505.3,326.9,-0.7,1.8,2470.126,13.33,0.016,183.6
2019-09-16T07:14:25,42.805,6.029,-0.026,-0.023,0.004,103.0,105.0,100.0,13.4,1505.3,326.9,-0.7,1.9,2470.188,13.33,0.034,228.5
2019-09-16T07:17:26,42.805,6.029,0.015,-0.029,-0.011,102.0,105.0,99.0,13.4,1505.3,327.0,-0.7,1.8,2470.179,13.33,0.032,152.6
2019-09-16T07:20:27,42.805,6.029,0.002,-0.045,0.003,102.0,104.0,101.0,13.4,1505.3,326.6,-0.7,1.9,2470.127,13.33,0.045,177.5
2019-09-16T07:23:28,42.805,6.029,-0.009,-0.03,-0.015,103.0,104.0,99.0,13.4,1505.3,326.1,-0.7,1.8,2470.167,13.33,0.031,196.7
2019-09-16T07:26:29,42.805,6.029,0.044,-0.037,0.039,102.0,104.0,99.0,13.4,1505.3,327.1,-0.7,1.8,2470.15,13.33,0.057,130.1
2019-09-16T07:29:30,42.805,6.029,-0.004,-0.027,-0.026,102.0,103.0,99.0,13.4,1505.3,325.9,-0.7,1.8,2470.151,13.33,0.027,188.4
2019-09-16T07:32:31,42.805,6.029,0.007,-0.034,-0.001,102.0,105.0,101.0,13.3,1505.3,325.7,-0.7,1.8,2470.168,13.33,0.034,168.4
2019-09-16T07:35:32,42.805,6.029,0.002,-0.024,0.005,103.0,104.0,99.0,13.4,1505.3,326.9,-0.7,1.8,2470.188,13.33,0.024,175.2
2019-09-16T07:38:33,42.805,6.029,0.0,-0.023,0.018,103.0,105.0,100.0,13.4,1505.3,324.8,-0.7,1.8,2470.062,13.33,0.023,180.0
2019-09-16T07:41:34,42.805,6.029,0.004,-0.032,0.006,103.0,103.0,99.0,13.4,1505.3,323.6,-0.7,1.9,2470.168,13.33,0.032,172.9
2019-09-16T07:44:35,42.805,6.029,-0.018,-0.022,-0.032,101.0,105.0,100.0,13.3,1505.3,328.5,-0.7,1.8,2470.158,13.33,0.028,219.3
2019-09-16T07:47:36,42.805,6.029,-0.009,-0.008,0.0,103.0,103.0,100.0,13.4,1505.3,328.1,-0.7,1.8,2470.135,13.33,0.012,228.4
2019-09-16T07:50:37,42.805,6.029,-0.008,-0.027,0.005,102.0,103.0,100.0,13.4,1505.3,325.6,-0.7,1.8,2470.161,13.33,0.028,196.5
2019-09-16T07:53:38,42.805,6.029,-0.004,-0.027,0.0,102.0,104.0,98.0,13.3,1505.3,327.0,-0.7,1.9,2470.17,13.33,0.027,188.4
2019-09-16T07:56:39,42.805,6.029,0.007,-0.033,0.009,102.0,103.0,101.0,13.4,1505.3,323.5,-0.7,1.8,2470.111,13.33,0.033,168.0
2019-09-16T07:59:40,42.805,6.029,0.0,-0.018,0.006,102.0,103.0,98.0,13.4,1505.3,326.6,-0.7,1.8,2470.177,13.33,0.018,180.0
2019-09-16T08:02:41,42.805,6.029,-0.007,-0.027,0.008,102.0,103.0,99.0,13.3,1505.3,324.0,-0.7,1.8,2470.195,13.33,0.027,194.5
2019-09-16T08:05:42,42.805,6.029,-0.011,-0.018,0.0,102.0,103.0,98.0,13.4,1505.3,328.4,-0.7,1.8,2470.107,13.33,0.021,211.4
2019-09-16T08:08:43,42.805,6.029,-0.03,-0.028,0.004,103.0,103.0,102.0,13.4,1505.3,325.7,-0.7,1.8,2470.134,13.33,0.041,227.0
2019-09-16T08:11:44,42.805,6.029,-0.008,-0.01,-0.012,101.0,104.0,99.0,13.3,1505.3,328.1,-0.7,1.8,2470.175,13.33,0.012,218.7
2019-09-16T08:14:45,42.805,6.029,0.0,-0.011,0.01,102.0,104.0,99.0,13.3,1505.3,325.0,-0.7,1.8,2470.169,13.33,0.011,180.0
2019-09-16T08:17:46,42.805,6.029,-0.004,0.003,0.014,102.0,103.0,99.0,13.3,1505.3,324.8,-0.6,1.8,2470.098,13.33,0.005,306.9
2019-09-16T08:20:47,42.805,6.029,0.023,-0.027,0.007,102.0,104.0,100.0,13.3,1505.3,323.1,-0.7,1.9,2470.165,13.33,0.035,139.6
2019-09-16T08:23:48,42.805,6.029,0.026,-0.023,0.008,103.0,106.0,100.0,13.4,1505.3,324.7,-0.7,1.8,2470.197,13.33,0.034,131.5
2019-09-16T08:26:49,42.805,6.029,0.011,-0.007,0.028,102.0,105.0,100.0,13.4,1505.3,324.1,-0.7,1.8,2470.118,13.33,0.013,122.5
2019-09-16T08:29:50,42.805,6.029,0.004,-0.013,0.017,102.0,104.0,100.0,13.4,1505.3,325.5,-0.7,1.8,2470.132,13.33,0.013,162.9
2019-09-16T08:32:51,42.805,6.029,0.008,-0.01,0.029,103.0,105.0,100.0,13.3,1505.3,324.6,-0.7,1.8,2470.142,13.33,0.012,141.3
2019-09-16T08:35:52,42.805,6.029,0.009,-0.028,0.04,104.0,105.0,99.0,13.4,1505.3,327.3,-0.7,1.8,2470.154,13.33,0.029,162.2
2019-09-16T08:38:53,42.805,6.029,0.001,-0.015,0.021,104.0,105.0,99.0,13.4,1505.3,324.8,-0.7,1.8,2470.166,13.33,0.015,176.2
2019-09-16T08:41:54,42.805,6.029,0.018,-0.015,0.039,103.0,107.0,100.0,13.3,1505.3,323.6,-0.7,1.8,2470.141,13.33,0.023,129.8
2019-09-16T08:44:55,42.805,6.029,0.012,-0.009,0.031,101.0,106.0,101.0,13.3,1505.3,328.5,-0.7,1.8,2470.159,13.33,0.015,126.9
2019-09-16T08:47:56,42.805,6.029,0.0,-0.036,0.01,103.0,106.0,99.0,13.4,1505.3,324.2,-0.7,1.8,2470.175,13.33,0.036,180.0
2019-09-16T08:50:57,42.805,6.029,0.028,-0.009,0.004,103.0,106.0,99.0,13.4,1505.4,326.3,-0.8,1.8,2470.19,13.34,0.029,107.8
2019-09-16T08:53:58,42.805,6.029,0.012,-0.017,0.026,101.0,107.0,100.0,13.3,1505.4,323.7,-0.7,1.8,2470.147,13.34,0.02,144.8
2019-09-16T08:56:59,42.805,6.029,0.003,-0.004,-0.002,103.0,106.0,103.0,13.3,1505.4,324.1,-0.7,1.8,2470.172,13.34,0.005,143.1
2019-09-16T09:00:00,42.805,6.029,0.02,-0.021,0.017,103.0,105.0,101.0,13.3,1505.4,326.4,-0.7,1.8,2470.152,13.34,0.028,136.4
2019-09-16T09:03:01,42.805,6.029,-0.029,-0.016,-0.033,103.0,105.0,99.0,13.3,1505.4,324.4,-0.7,1.8,2470.164,13.34,0.033,241.1
2019-09-16T09:06:02,42.805,6.029,-0.016,-0.01,-0.014,103.0,105.0,99.0,13.4,1505.4,327.4,-0.7,1.9,2470.125,13.34,0.018,238.0
2019-09-16T09:09:03,42.805,6.029,-0.046,-0.042,-0.093,102.0,105.0,99.0,13.3,1505.4,323.2,-0.7,1.8,2470.127,13.34,0.062,227.6
2019-09-16T09:12:04,42.805,6.029,-0.03,-0.015,-0.006,102.0,105.0,100.0,13.4,1505.4,324.8,-0.7,1.8,2470.135,13.34,0.033,243.4
2019-09-16T09:15:05,42.805,6.029,-0.056,-0.032,-0.044,103.0,105.0,100.0,13.3,1505.4,325.0,-0.7,1.8,2470.149,13.34,0.064,240.3
2019-09-16T09:18:06,42.805,6.029,-0.061,-0.035,-0.055,102.0,104.0,99.0,13.3,1505.4,325.7,-0.7,1.8,2470.114,13.34,0.07,240.2
2019-09-16T09:21:07,42.805,6.029,-0.028,-0.034,-0.03,101.0,107.0,99.0,13.4,1505.4,326.0,-0.7,1.8,2470.141,13.34,0.044,219.5
2019-09-16T09:24:08,42.805,6.029,-0.061,-0.015,-0.083,103.0,105.0,101.0,13.3,1505.4,327.1,-0.7,1.9,2470.149,13.34,0.062,256.2
2019-09-16T09:27:09,42.805,6.029,-0.034,-0.011,-0.005,102.0,105.0,100.0,13.4,1505.4,326.5,-0.7,1.8,2470.173,13.34,0.035,252.1
2019-09-16T09:30:10,42.805,6.029,-0.046,-0.028,-0.034,100.0,106.0,99.0,13.4,1505.4,327.6,-0.7,1.9,2470.176,13.34,0.053,238.7
2019-09-16T09:33:11,42.805,6.029,-0.036,-0.01,-0.078,101.0,105.0,101.0,13.4,1505.4,324.3,-0.7,1.9,2470.166,13.34,0.037,254.5
2019-09-16T09:36:12,42.805,6.029,0.005,-0.025,-0.018,102.0,105.0,99.0,13.4,1505.4,323.9,-0.6,1.9,2470.15,13.34,0.025,168.7
2019-09-16T09:39:13,42.805,6.029,-0.046,-0.006,-0.052,104.0,105.0,99.0,13.4,1505.4,326.5,-0.7,1.8,2470.149,13.34,0.046,262.6